User: anonymous   Login
Location: Conjunto Santa Maria
(19.9513°S, 43.9599°W)
Time: 03:51:03
(UTC+00:00)
Language:

SL-08 RB Rocket - Orbit

View from above orbital plane
View from above orbital plane
View from above satellite
View from above satellite

Ground track
Ground track

The orbit data is extracted from the following two-line orbital elements,

1 26387U 00033D   21107.56374207  .00000113  00000-0  27348-4 0  9990
2 26387  97.7805 141.0875 0026209 189.3955 287.7449 14.68691772371080
Epoch (UTC): 17 April 2021 13:31:47
Eccentricity: 0.0026209
inclination: 97.7805°
perigee height: 647 km
apogee height: 684 km
right ascension of ascending node: 141.0875°
argument of perigee: 189.3955°
revolutions per day: 14.68691772
mean anomaly at epoch: 287.7449°
orbit number at epoch: 37108

The dashed part of the orbit path shows where the satellite is in the earth's shadow,  

DLR